| time (UTC) | temp C | wind direction | speed KPH | gust KPH | rain 1hr cm | rain 24hr cm | rain mn cm | humidity % | barometer mb |
| 20260505034617 | 16 | 211 | 0.0 | 0.0 | 0.00 | 0.00 | 0.00 | 76 | 1010.1 |
| 20260505033105 | 16 | 211 | 0.0 | 0.0 | 0.00 | 0.00 | 0.00 | 75 | 1010.3 |
| 20260505031559 | 17 | 211 | 0.0 | 0.0 | 0.00 | 0.00 | 0.00 | 77 | 1010.3 |
| 20260505030058 | 17 | 211 | 0.0 | 0.0 | 0.00 | 0.00 | 0.00 | 74 | 1009.9 |
| 20260505024557 | 17 | 211 | 0.0 | 0.0 | 0.00 | 0.00 | 0.00 | 75 | 1009.9 |
| 20260505023101 | 18 | 211 | 0.0 | 0.0 | 0.00 | 0.00 | 0.00 | 72 | 1009.6 |
| 20260505021559 | 18 | 211 | 0.0 | 0.0 | 0.00 | 0.00 | 0.00 | 69 | 1009.4 |
| 20260505020100 | 19 | 211 | 0.0 | 0.0 | 0.00 | 0.00 | 0.00 | 69 | 1009.2 |
| 20260505014556 | 20 | 211 | 0.0 | 0.0 | 0.00 | 0.00 | 0.00 | 65 | 1009.2 |
| 20260505013058 | 20 | 211 | 0.0 | 0.0 | 0.00 | 0.00 | 0.00 | 65 | 1009.1 |
| 20260505011611 | 21 | 211 | 0.0 | 0.0 | 0.00 | 0.00 | 0.00 | 62 | 1008.9 |
| 20260505010055 | 22 | 230 | 0.0 | 1.6 | 0.00 | 0.00 | 0.00 | 61 | 1008.8 |
| 20260505004604 | 22 | 230 | 0.0 | 3.2 | 0.00 | 0.00 | 0.00 | 60 | 1008.8 |
| 20260505003056 | 23 | 219 | 0.0 | 3.2 | 0.00 | 0.00 | 0.00 | 59 | 1009.0 |
| 20260505001608 | 23 | 273 | 0.0 | 4.8 | 0.00 | 0.00 | 0.00 | 58 | 1009.0 |
| 20260505000106 | 23 | 172 | 0.0 | 6.4 | 0.00 | 0.00 | 0.00 | 57 | 1008.9 |
| 20260504234555 | 23 | 119 | 0.0 | 14.5 | 0.00 | 0.00 | 0.00 | 55 | 1009.0 |
| 20260504233103 | 24 | 186 | 3.2 | 17.7 | 0.00 | 0.00 | 0.00 | 54 | 1009.1 |
| 20260504231548 | 25 | 175 | 1.6 | 9.7 | 0.00 | 0.00 | 0.00 | 53 | 1009.4 |
| 20260504230047 | 25 | 167 | 3.2 | 11.3 | 0.00 | 0.00 | 0.00 | 51 | 1009.6 |
| 20260504224546 | 25 | 202 | 3.2 | 14.5 | 0.00 | 0.00 | 0.00 | 51 | 1009.8 |
| 20260504223046 | 25 | 184 | 4.8 | 17.7 | 0.00 | 0.00 | 0.00 | 51 | 1009.8 |
| 20260504221544 | 25 | 202 | 6.4 | 19.3 | 0.00 | 0.00 | 0.00 | 50 | 1010.0 |
| 20260504220043 | 25 | 241 | 4.8 | 16.1 | 0.00 | 0.00 | 0.00 | 51 | 1010.0 |
| 20260504214542 | 25 | 173 | 1.6 | 12.9 | 0.00 | 0.00 | 0.00 | 51 | 1010.1 |
| 20260504213041 | 26 | 15 | 6.4 | 17.7 | 0.00 | 0.00 | 0.00 | 49 | 1010.3 |
| 20260504211539 | 26 | 226 | 4.8 | 14.5 | 0.00 | 0.00 | 0.00 | 50 | 1010.5 |
| 20260504210039 | 26 | 223 | 4.8 | 16.1 | 0.00 | 0.00 | 0.00 | 49 | 1010.6 |
| 20260504204536 | 26 | 178 | 4.8 | 14.5 | 0.00 | 0.00 | 0.00 | 50 | 1011.0 |
| 20260504203034 | 26 | 222 | 6.4 | 19.3 | 0.00 | 0.00 | 0.00 | 50 | 1011.1 |
| 20260504201533 | 26 | 194 | 6.4 | 19.3 | 0.00 | 0.00 | 0.00 | 51 | 1011.5 |
| 20260504200032 | 26 | 228 | 8.0 | 16.1 | 0.00 | 0.00 | 0.00 | 49 | 1011.7 |
| 20260504194531 | 26 | 144 | 4.8 | 19.3 | 0.00 | 0.00 | 0.00 | 51 | 1012.0 |
| 20260504193025 | 25 | 192 | 6.4 | 17.7 | 0.00 | 0.00 | 0.00 | 49 | 1012.4 |
| 20260504191522 | 25 | 281 | 9.7 | 19.3 | 0.00 | 0.00 | 0.00 | 50 | 1012.5 |
| 20260504190025 | 25 | 119 | 8.0 | 19.3 | 0.00 | 0.00 | 0.00 | 51 | 1012.7 |
| 20260504184523 | 25 | 98 | 4.8 | 22.5 | 0.00 | 0.00 | 0.00 | 53 | 1012.9 |
| 20260504183017 | 25 | 138 | 6.4 | 16.1 | 0.00 | 0.00 | 0.00 | 51 | 1013.2 |
| 20260504181514 | 24 | 233 | 6.4 | 16.1 | 0.00 | 0.00 | 0.00 | 51 | 1013.2 |
| 20260504180012 | 24 | 205 | 8.0 | 19.3 | 0.00 | 0.00 | 0.00 | 51 | 1013.4 |
| 20260504174512 | 24 | 217 | 6.4 | 20.9 | 0.00 | 0.00 | 0.00 | 51 | 1013.6 |
| 20260504173007 | 24 | 254 | 6.4 | 19.3 | 0.00 | 0.00 | 0.00 | 51 | 1014.0 |
| 20260504171504 | 23 | 246 | 4.8 | 19.3 | 0.00 | 0.00 | 0.00 | 54 | 1014.0 |
| 20260504100103 | 12 | 153 | 0.0 | 0.0 | 0.00 | 0.00 | 0.00 | 83 | 1015.1 |
| 20260504090105 | 13 | 153 | 0.0 | 0.0 | 0.00 | 0.00 | 0.00 | 82 | 1015.1 |
| 20260504081547 | 15 | 153 | 0.0 | 1.6 | 0.00 | 0.00 | 0.00 | 80 | 1015.0 |
| 20260504050018 | 15 | 156 | 1.6 | 8.0 | 0.00 | 0.00 | 0.00 | 82 | 1016.1 |
| 20260504044520 | 15 | 189 | 0.0 | 0.0 | 0.00 | 0.00 | 0.00 | 81 | 1016.2 |
| 20260504043025 | 15 | 189 | 0.0 | 0.0 | 0.00 | 0.00 | 0.00 | 81 | 1016.0 |
| 20260504041521 | 15 | 189 | 0.0 | 0.0 | 0.00 | 0.00 | 0.00 | 78 | 1016.2 |
| 20260504040020 | 15 | 189 | 0.0 | 0.0 | 0.00 | 0.00 | 0.00 | 79 | 1016.4 |